SBI5541 UNNT-UCFM

Flight info

Callsign SBI5541
Flight time 2h 11m
Altitude 34000
Route ALIRO1P ALIRO R484 RUBID G121 ELSUT L143 UMLOD LUGOS1
Aircraft A321/M-SDE3FGHIRWY/LB1

Departure

Time 2026-04-15 07:51
Airport Novosibirsk Tolmachevo Airport (UNNT)

Arrival

Time 2026-04-15 10:02
Airport Manas International Airport (UCFM)
Time Latitude Longitude Altitude Speed Heading
2026-04-15 07:17 55.01030 82.67051 373 ft 0 kts 171°
2026-04-15 07:42 55.01053 82.67042 373 ft 4 kts 156°
2026-04-15 07:43 55.01075 82.67018 373 ft 4 kts 127°
2026-04-15 07:43 55.01084 82.66980 373 ft 2 kts 82°
2026-04-15 07:43 55.01083 82.66977 373 ft 0 kts 81°
2026-04-15 07:46 55.01085 82.66992 373 ft 3 kts 82°
2026-04-15 07:47 55.01089 82.67042 373 ft 6 kts 82°
2026-04-15 07:47 55.01095 82.67128 373 ft 8 kts 82°
2026-04-15 07:47 55.01100 82.67190 373 ft 3 kts 82°
2026-04-15 07:47 55.01102 82.67214 373 ft 3 kts 82°
2026-04-15 07:48 55.01106 82.67266 373 ft 7 kts 83°
2026-04-15 07:48 55.01110 82.67383 373 ft 11 kts 87°
2026-04-15 07:48 55.01134 82.67472 373 ft 6 kts 41°
2026-04-15 07:48 55.01160 82.67501 373 ft 6 kts 32°
2026-04-15 07:49 55.01220 82.67565 373 ft 13 kts 31°
2026-04-15 07:49 55.01287 82.67634 373 ft 9 kts 31°
2026-04-15 07:49 55.01330 82.67679 373 ft 6 kts 30°
2026-04-15 07:49 55.01379 82.67729 372 ft 9 kts 31°
2026-04-15 07:50 55.01424 82.67771 372 ft 6 kts 21°
2026-04-15 07:50 55.01471 82.67745 371 ft 10 kts 305°
2026-04-15 07:50 55.01478 82.67642 371 ft 0 kts 261°
2026-04-15 07:51 55.01462 82.67461 370 ft 47 kts 261°
2026-04-15 07:51 55.01371 82.66468 375 ft 116 kts 261°
2026-04-15 07:51 55.01210 82.64741 382 ft 170 kts 259°
2026-04-15 07:51 55.01010 82.62697 1126 ft 166 kts 258°
2026-04-15 07:52 55.00804 82.60763 2017 ft 161 kts 256°
2026-04-15 07:52 55.00610 82.58843 2556 ft 161 kts 256°
2026-04-15 07:52 55.00419 82.56900 2961 ft 169 kts 256°
2026-04-15 07:52 55.00112 82.54826 3112 ft 188 kts 238°
2026-04-15 07:53 54.99047 82.53417 3261 ft 211 kts 195°
2026-04-15 07:53 54.97489 82.53613 3512 ft 241 kts 166°
2026-04-15 07:53 54.95887 82.54713 4163 ft 253 kts 159°
2026-04-15 07:53 54.94284 82.56045 4917 ft 259 kts 158°
2026-04-15 07:54 54.92641 82.57412 5679 ft 264 kts 158°
2026-04-15 07:54 54.90957 82.58739 6432 ft 267 kts 159°
2026-04-15 07:54 54.89236 82.60015 7132 ft 271 kts 160°
2026-04-15 07:54 54.87475 82.61257 7840 ft 275 kts 161°
2026-04-15 07:55 54.85680 82.62489 8528 ft 280 kts 161°
2026-04-15 07:55 54.83850 82.63726 9210 ft 285 kts 162°
2026-04-15 07:55 54.80061 82.66250 10209 ft 306 kts 162°
2026-04-15 07:56 54.77993 82.67606 10345 ft 329 kts 162°
2026-04-15 07:56 54.75783 82.69055 10475 ft 350 kts 162°
2026-04-15 07:56 54.73459 82.70589 10846 ft 362 kts 161°
2026-04-15 07:56 54.71095 82.72163 11457 ft 366 kts 161°
2026-04-15 07:57 54.68741 82.73734 12103 ft 369 kts 161°
2026-04-15 07:57 54.66305 82.75349 12750 ft 372 kts 162°
2026-04-15 07:57 54.63901 82.76934 13382 ft 376 kts 162°
2026-04-15 07:57 54.61449 82.78546 13981 ft 379 kts 162°
2026-04-15 07:58 54.58974 82.80174 14533 ft 382 kts 162°
2026-04-15 07:58 54.56483 82.81812 15095 ft 385 kts 162°
2026-04-15 07:58 54.53974 82.83456 15624 ft 388 kts 162°
2026-04-15 07:58 54.51439 82.85110 16150 ft 391 kts 162°
2026-04-15 07:59 54.48885 82.86777 16666 ft 395 kts 162°
2026-04-15 07:59 54.46307 82.88451 17172 ft 398 kts 164°
2026-04-15 07:59 54.43627 82.89604 17664 ft 396 kts 176°
2026-04-15 07:59 54.40887 82.89709 18160 ft 393 kts 189°
2026-04-15 08:00 54.38221 82.88780 18601 ft 390 kts 202°
2026-04-15 08:00 54.35766 82.86898 19030 ft 386 kts 215°
2026-04-15 08:00 54.33622 82.84180 19475 ft 382 kts 227°
2026-04-15 08:00 54.31778 82.80920 19939 ft 381 kts 231°
2026-04-15 08:01 54.29948 82.77626 20410 ft 383 kts 231°
2026-04-15 08:01 54.28103 82.74324 20875 ft 385 kts 231°
2026-04-15 08:01 54.26277 82.71071 21409 ft 383 kts 232°
2026-04-15 08:01 54.24424 82.67784 21943 ft 384 kts 232°
2026-04-15 08:02 54.22568 82.64500 22422 ft 385 kts 233°
2026-04-15 08:02 54.20709 82.61213 22884 ft 386 kts 233°
2026-04-15 08:02 54.18839 82.57907 23340 ft 387 kts 233°
2026-04-15 08:02 54.16966 82.54600 23687 ft 389 kts 234°
2026-04-15 08:03 54.15083 82.51277 24033 ft 390 kts 234°
2026-04-15 08:03 54.13190 82.47939 24361 ft 392 kts 234°
2026-04-15 08:03 54.11290 82.44595 24684 ft 394 kts 234°
2026-04-15 08:03 54.09379 82.41237 25006 ft 396 kts 234°
2026-04-15 08:04 54.07456 82.37864 25318 ft 398 kts 234°
2026-04-15 08:04 54.05493 82.34516 25623 ft 403 kts 230°
2026-04-15 08:04 54.03211 82.31617 25904 ft 417 kts 220°
2026-04-15 08:04 54.00561 82.29427 26176 ft 432 kts 210°
2026-04-15 08:05 53.97640 82.27937 26404 ft 440 kts 206°
2026-04-15 08:05 53.94684 82.26539 26703 ft 442 kts 206°
2026-04-15 08:05 53.91713 82.25139 26989 ft 444 kts 206°
2026-04-15 08:05 53.88771 82.23752 27266 ft 446 kts 206°
2026-04-15 08:06 53.85739 82.22317 27554 ft 448 kts 206°
2026-04-15 08:06 53.82735 82.20887 27824 ft 450 kts 206°
2026-04-15 08:06 53.79724 82.19455 28174 ft 449 kts 206°
2026-04-15 08:06 53.76756 82.18049 28544 ft 448 kts 206°
2026-04-15 08:07 53.73751 82.16630 28918 ft 448 kts 206°
2026-04-15 08:07 53.70754 82.15217 29246 ft 447 kts 207°
2026-04-15 08:07 53.67761 82.13804 29597 ft 446 kts 207°
2026-04-15 08:07 53.64772 82.12395 29935 ft 446 kts 207°
2026-04-15 08:08 53.61786 82.10989 30210 ft 446 kts 207°
2026-04-15 08:08 53.58805 82.09586 30471 ft 446 kts 206°
2026-04-15 08:08 53.55818 82.08181 30718 ft 446 kts 206°
2026-04-15 08:08 53.52823 82.06772 30984 ft 446 kts 206°
2026-04-15 08:09 53.49831 82.05371 31247 ft 447 kts 206°
2026-04-15 08:09 53.46836 82.03972 31462 ft 446 kts 206°
2026-04-15 08:09 53.43847 82.02578 31754 ft 446 kts 206°
2026-04-15 08:09 53.40857 82.01186 32028 ft 446 kts 206°
2026-04-15 08:10 53.37868 81.99800 32297 ft 446 kts 206°
2026-04-15 08:10 53.34874 81.98419 32576 ft 446 kts 206°
2026-04-15 08:10 53.31886 81.97041 32825 ft 446 kts 205°
2026-04-15 08:10 53.28895 81.95660 33078 ft 446 kts 205°
2026-04-15 08:11 53.25906 81.94279 33325 ft 446 kts 205°
2026-04-15 08:11 53.22916 81.92895 33568 ft 446 kts 205°
2026-04-15 08:11 53.19969 81.91534 33790 ft 446 kts 205°
2026-04-15 08:12 53.14004 81.88792 33894 ft 443 kts 205°
2026-04-15 08:12 53.08066 81.86076 33893 ft 442 kts 205°
2026-04-15 08:13 53.02139 81.83366 33899 ft 441 kts 205°
2026-04-15 08:13 52.96218 81.80676 33859 ft 441 kts 206°
2026-04-15 08:14 52.90302 81.77993 33897 ft 441 kts 206°
2026-04-15 08:14 52.84388 81.75316 33900 ft 441 kts 206°
2026-04-15 08:15 52.78476 81.72632 33900 ft 441 kts 206°
2026-04-15 08:15 52.72560 81.69962 33904 ft 441 kts 206°
2026-04-15 08:16 52.66682 81.67326 33885 ft 441 kts 206°
2026-04-15 08:16 52.60763 81.64670 33892 ft 441 kts 206°
2026-04-15 08:17 52.54843 81.62029 33894 ft 441 kts 206°
2026-04-15 08:17 52.48931 81.59386 33903 ft 440 kts 206°
2026-04-15 08:18 52.43013 81.56770 33886 ft 441 kts 207°
2026-04-15 08:18 52.37092 81.54154 33880 ft 440 kts 207°
2026-04-15 08:19 52.31188 81.51522 33891 ft 440 kts 207°
2026-04-15 08:19 52.25279 81.48909 33899 ft 440 kts 207°
2026-04-15 08:20 52.19377 81.46326 33877 ft 439 kts 208°
2026-04-15 08:20 52.13516 81.43770 33891 ft 439 kts 208°
2026-04-15 08:21 52.07615 81.41198 33899 ft 439 kts 208°
2026-04-15 08:21 52.01724 81.38619 33902 ft 438 kts 208°
2026-04-15 08:22 51.95832 81.36057 33863 ft 438 kts 209°
2026-04-15 08:22 51.89946 81.33495 33876 ft 438 kts 209°
2026-04-15 08:23 51.84056 81.30944 33889 ft 438 kts 209°
2026-04-15 08:23 51.78158 81.28412 33896 ft 438 kts 209°
2026-04-15 08:24 51.72266 81.25886 33900 ft 438 kts 209°
2026-04-15 08:24 51.66373 81.23355 33914 ft 439 kts 208°
2026-04-15 08:25 51.60471 81.20811 33919 ft 439 kts 208°
2026-04-15 08:25 51.57659 81.19311 33919 ft 424 kts 217°
2026-04-15 08:25 51.55031 81.17282 33927 ft 417 kts 220°
2026-04-15 08:26 51.49838 81.13138 33932 ft 417 kts 220°
2026-04-15 08:26 51.44634 81.09012 33896 ft 417 kts 220°
2026-04-15 08:27 51.39428 81.04887 33900 ft 418 kts 220°
2026-04-15 08:27 51.34214 81.00777 33921 ft 418 kts 219°
2026-04-15 08:28 51.28991 80.96673 33928 ft 418 kts 219°
2026-04-15 08:28 51.23770 80.92572 33937 ft 418 kts 219°
2026-04-15 08:29 51.18592 80.88492 33909 ft 417 kts 219°
2026-04-15 08:29 51.13409 80.84353 33930 ft 417 kts 220°
2026-04-15 08:30 51.08223 80.80220 33939 ft 417 kts 219°
2026-04-15 08:30 51.03027 80.76113 33946 ft 417 kts 219°
2026-04-15 08:31 50.97831 80.72018 33943 ft 417 kts 219°
2026-04-15 08:31 50.92633 80.67929 33919 ft 417 kts 219°
2026-04-15 08:32 50.87431 80.63844 33929 ft 417 kts 219°
2026-04-15 08:32 50.82224 80.59770 33940 ft 417 kts 219°
2026-04-15 08:33 50.77020 80.55701 33928 ft 417 kts 219°
2026-04-15 08:33 50.71818 80.51654 33893 ft 417 kts 219°
2026-04-15 08:34 50.66608 80.47607 33944 ft 418 kts 219°
2026-04-15 08:34 50.61428 80.43590 33962 ft 418 kts 219°
2026-04-15 08:35 50.56212 80.39562 33971 ft 418 kts 219°
2026-04-15 08:35 50.50992 80.35543 33984 ft 418 kts 219°
2026-04-15 08:36 50.45777 80.31531 33946 ft 417 kts 219°
2026-04-15 08:36 50.40554 80.27528 33965 ft 418 kts 219°
2026-04-15 08:37 50.35326 80.23525 33960 ft 418 kts 218°
2026-04-15 08:37 50.30028 80.19679 33964 ft 422 kts 217°
2026-04-15 08:38 50.24649 80.15994 33968 ft 423 kts 216°
2026-04-15 08:38 50.19254 80.12323 33935 ft 423 kts 216°
2026-04-15 08:39 50.13871 80.08620 33943 ft 423 kts 216°
2026-04-15 08:39 50.08495 80.04903 33945 ft 423 kts 216°
2026-04-15 08:40 50.03143 80.01216 33952 ft 424 kts 216°
2026-04-15 08:40 49.97751 79.97514 33920 ft 424 kts 216°
2026-04-15 08:41 49.92347 79.93820 33951 ft 424 kts 215°
2026-04-15 08:41 49.87816 79.90715 33956 ft 425 kts 216°
2026-04-15 08:42 49.82408 79.87013 33965 ft 425 kts 216°
2026-04-15 08:42 49.76989 79.83327 33966 ft 425 kts 215°
2026-04-15 08:43 49.71607 79.79681 33915 ft 425 kts 215°
2026-04-15 08:43 49.66183 79.76020 33925 ft 426 kts 215°
2026-04-15 08:44 49.60750 79.72356 33938 ft 426 kts 215°
2026-04-15 08:44 49.55315 79.68690 33941 ft 427 kts 215°
2026-04-15 08:45 49.49869 79.65032 33891 ft 426 kts 214°
2026-04-15 08:45 49.44432 79.61395 33939 ft 427 kts 214°
2026-04-15 08:46 49.38986 79.57751 33939 ft 427 kts 214°
2026-04-15 08:46 49.33542 79.54119 33943 ft 426 kts 214°
2026-04-15 08:47 49.28138 79.50529 33937 ft 426 kts 214°
2026-04-15 08:47 49.22688 79.46929 33907 ft 426 kts 214°
2026-04-15 08:48 49.17244 79.43328 33909 ft 426 kts 214°
2026-04-15 08:48 49.11799 79.39720 33905 ft 426 kts 214°
2026-04-15 08:49 49.06353 79.36130 33877 ft 426 kts 214°
2026-04-15 08:49 49.00911 79.32558 33876 ft 426 kts 213°
2026-04-15 08:50 48.95469 79.28992 33877 ft 426 kts 213°
2026-04-15 08:50 48.90025 79.25424 33880 ft 426 kts 213°
2026-04-15 08:51 48.84616 79.21887 33895 ft 426 kts 213°
2026-04-15 08:51 48.79168 79.18347 33895 ft 426 kts 213°
2026-04-15 08:52 48.73720 79.14817 33899 ft 426 kts 213°
2026-04-15 08:52 48.68267 79.11286 33897 ft 426 kts 213°
2026-04-15 08:53 48.62821 79.07755 33883 ft 426 kts 213°
2026-04-15 08:53 48.57379 79.04253 33895 ft 425 kts 212°
2026-04-15 08:54 48.51941 79.00756 33893 ft 424 kts 212°
2026-04-15 08:54 48.46515 78.97268 33902 ft 424 kts 212°
2026-04-15 08:55 48.41084 78.93794 33901 ft 424 kts 212°
2026-04-15 08:55 48.35692 78.90356 33901 ft 424 kts 212°
2026-04-15 08:56 48.30272 78.86893 33880 ft 423 kts 212°
2026-04-15 08:56 48.24846 78.83435 33891 ft 424 kts 212°
2026-04-15 08:57 48.19418 78.79991 33891 ft 423 kts 211°
2026-04-15 08:57 48.13997 78.76560 33916 ft 422 kts 211°
2026-04-15 08:58 48.08593 78.73140 33896 ft 421 kts 211°
2026-04-15 08:58 48.00492 78.68020 33905 ft 421 kts 211°
2026-04-15 08:59 47.95086 78.64626 33908 ft 421 kts 211°
2026-04-15 08:59 47.89725 78.61258 33914 ft 421 kts 211°
2026-04-15 09:00 47.84316 78.57871 33883 ft 421 kts 211°
2026-04-15 09:00 47.78908 78.54489 33890 ft 422 kts 210°
2026-04-15 09:01 47.73490 78.51115 33910 ft 422 kts 210°
2026-04-15 09:01 47.68077 78.47756 33924 ft 422 kts 210°
2026-04-15 09:02 47.62668 78.44393 33905 ft 421 kts 210°
2026-04-15 09:02 47.57253 78.41031 33909 ft 422 kts 210°
2026-04-15 09:03 47.51828 78.37679 33919 ft 423 kts 210°
2026-04-15 09:03 47.46392 78.34332 33927 ft 423 kts 210°
2026-04-15 09:04 47.40955 78.30994 33914 ft 423 kts 210°
2026-04-15 09:04 47.35554 78.27677 33938 ft 423 kts 210°
2026-04-15 09:05 47.30130 78.24338 33952 ft 422 kts 210°
2026-04-15 09:05 47.24711 78.21022 33963 ft 422 kts 209°
2026-04-15 09:06 47.19293 78.17718 33965 ft 421 kts 210°
2026-04-15 09:06 47.13882 78.14419 33942 ft 422 kts 209°
2026-04-15 09:07 47.08451 78.11136 33950 ft 422 kts 209°
2026-04-15 09:07 47.03021 78.07844 33954 ft 422 kts 209°
2026-04-15 09:08 46.97603 78.04551 33969 ft 422 kts 209°
2026-04-15 09:08 46.92170 78.01261 33966 ft 422 kts 208°
2026-04-15 09:09 46.86746 77.97994 33975 ft 422 kts 208°
2026-04-15 09:09 46.81317 77.94739 33986 ft 421 kts 208°
2026-04-15 09:10 46.75895 77.91496 33992 ft 421 kts 208°
2026-04-15 09:10 46.70506 77.88267 33976 ft 421 kts 208°
2026-04-15 09:11 46.65081 77.85026 33982 ft 422 kts 208°
2026-04-15 09:11 46.59650 77.81796 33985 ft 422 kts 208°
2026-04-15 09:12 46.54200 77.78573 33978 ft 422 kts 208°
2026-04-15 09:12 46.48774 77.75360 33994 ft 421 kts 208°
2026-04-15 09:13 46.43353 77.72163 33998 ft 420 kts 208°
2026-04-15 09:13 46.37940 77.68968 34000 ft 420 kts 208°
2026-04-15 09:14 46.32527 77.65779 33996 ft 420 kts 208°
2026-04-15 09:14 46.27151 77.62635 33972 ft 420 kts 207°
2026-04-15 09:15 46.21734 77.59461 33966 ft 421 kts 207°
2026-04-15 09:15 46.16308 77.56281 33965 ft 421 kts 207°
2026-04-15 09:16 46.10882 77.53109 33962 ft 421 kts 207°
2026-04-15 09:16 46.05448 77.49945 33945 ft 421 kts 207°
2026-04-15 09:17 46.00005 77.46785 33942 ft 422 kts 207°
2026-04-15 09:17 45.94551 77.43627 33957 ft 423 kts 207°
2026-04-15 09:18 45.89092 77.40474 33944 ft 423 kts 207°
2026-04-15 09:18 45.83634 77.37326 33928 ft 423 kts 207°
2026-04-15 09:19 45.78206 77.34198 33934 ft 424 kts 207°
2026-04-15 09:19 45.72734 77.31048 33939 ft 423 kts 207°
2026-04-15 09:20 45.67269 77.27913 33943 ft 423 kts 207°
2026-04-15 09:20 45.61804 77.24787 33926 ft 423 kts 206°
2026-04-15 09:21 45.56340 77.21671 33931 ft 423 kts 206°
2026-04-15 09:21 45.50872 77.18551 33934 ft 424 kts 206°
2026-04-15 09:22 45.45394 77.15442 33929 ft 424 kts 206°
2026-04-15 09:22 45.39910 77.12340 33918 ft 424 kts 206°
2026-04-15 09:23 45.34430 77.09235 33925 ft 424 kts 206°
2026-04-15 09:23 45.28988 77.06153 33931 ft 424 kts 206°
2026-04-15 09:24 45.23508 77.03068 33938 ft 423 kts 206°
2026-04-15 09:24 45.18034 76.99990 33914 ft 424 kts 206°
2026-04-15 09:25 45.12548 76.96904 33910 ft 424 kts 206°
2026-04-15 09:25 45.07051 76.93829 33911 ft 425 kts 206°
2026-04-15 09:26 45.01550 76.90764 33897 ft 425 kts 206°
2026-04-15 09:26 44.96049 76.87692 33899 ft 425 kts 206°
2026-04-15 09:27 44.90548 76.84621 33910 ft 425 kts 206°
2026-04-15 09:27 44.85045 76.81569 33912 ft 425 kts 206°
2026-04-15 09:28 44.79542 76.78518 33908 ft 425 kts 206°
2026-04-15 09:28 44.74039 76.75472 33904 ft 425 kts 206°
2026-04-15 09:29 44.68564 76.72450 33908 ft 425 kts 206°
2026-04-15 09:29 44.63056 76.69417 33911 ft 426 kts 206°
2026-04-15 09:30 44.57541 76.66380 33894 ft 426 kts 206°
2026-04-15 09:30 44.52028 76.63347 33897 ft 426 kts 206°
2026-04-15 09:31 44.46507 76.60325 33910 ft 426 kts 206°
2026-04-15 09:31 44.40983 76.57312 33907 ft 426 kts 206°
2026-04-15 09:32 44.35458 76.54298 33908 ft 426 kts 206°
2026-04-15 09:32 44.29931 76.51282 33905 ft 426 kts 206°
2026-04-15 09:33 44.24442 76.48292 33909 ft 426 kts 206°
2026-04-15 09:33 44.18914 76.45285 33885 ft 426 kts 206°
2026-04-15 09:34 44.13380 76.42290 33887 ft 427 kts 206°
2026-04-15 09:34 44.07843 76.39301 33895 ft 428 kts 206°
2026-04-15 09:35 44.02302 76.36296 33896 ft 427 kts 208°
2026-04-15 09:35 43.97407 76.31899 33879 ft 415 kts 227°
2026-04-15 09:36 43.93943 76.25628 33880 ft 408 kts 243°
2026-04-15 09:36 43.91137 76.18767 33886 ft 410 kts 243°
2026-04-15 09:37 43.88291 76.11903 33876 ft 408 kts 243°
2026-04-15 09:37 43.86891 76.08555 33760 ft 395 kts 243°
2026-04-15 09:37 43.85524 76.05295 33393 ft 388 kts 243°
2026-04-15 09:38 43.84180 76.02078 32936 ft 384 kts 243°
2026-04-15 09:38 43.82854 75.98886 32456 ft 380 kts 243°
2026-04-15 09:38 43.81541 75.95718 31327 ft 392 kts 243°
2026-04-15 09:38 43.80152 75.92355 29842 ft 413 kts 243°
2026-04-15 09:39 43.78686 75.88814 28151 ft 434 kts 243°
2026-04-15 09:39 43.77161 75.85161 27062 ft 440 kts 242°
2026-04-15 09:39 43.75622 75.81500 26215 ft 440 kts 242°
2026-04-15 09:39 43.74080 75.77854 25645 ft 435 kts 242°
2026-04-15 09:40 43.72577 75.74314 25500 ft 419 kts 242°
2026-04-15 09:40 43.71130 75.70905 25378 ft 404 kts 242°
2026-04-15 09:40 43.69738 75.67617 25251 ft 389 kts 242°
2026-04-15 09:40 43.68397 75.64442 25129 ft 375 kts 242°
2026-04-15 09:41 43.67104 75.61383 25008 ft 362 kts 242°
2026-04-15 09:41 43.66273 75.59418 24928 ft 354 kts 242°
2026-04-15 09:41 43.65049 75.56523 24678 ft 346 kts 242°
2026-04-15 09:41 43.63828 75.53688 24295 ft 343 kts 239°
2026-04-15 09:42 43.62353 75.51093 23877 ft 344 kts 232°
2026-04-15 09:42 43.60767 75.48626 23443 ft 343 kts 232°
2026-04-15 09:42 43.59186 75.46171 22958 ft 341 kts 231°
2026-04-15 09:42 43.57617 75.43736 22521 ft 338 kts 231°
2026-04-15 09:43 43.55560 75.40547 21963 ft 333 kts 231°
2026-04-15 09:43 43.54525 75.38944 21701 ft 331 kts 231°
2026-04-15 09:43 43.53002 75.36582 21274 ft 328 kts 231°
2026-04-15 09:43 43.51495 75.34240 20872 ft 325 kts 231°
2026-04-15 09:44 43.50002 75.31921 20480 ft 322 kts 231°
2026-04-15 09:44 43.48517 75.29625 20075 ft 320 kts 230°
2026-04-15 09:44 43.47041 75.27349 19671 ft 318 kts 230°
2026-04-15 09:44 43.45573 75.25085 19272 ft 315 kts 230°
2026-04-15 09:45 43.44140 75.22875 18884 ft 313 kts 230°
2026-04-15 09:45 43.42696 75.20646 18506 ft 311 kts 230°
2026-04-15 09:45 43.41265 75.18431 18142 ft 308 kts 229°
2026-04-15 09:45 43.39846 75.16239 17731 ft 305 kts 229°
2026-04-15 09:46 43.38437 75.14067 17272 ft 305 kts 229°
2026-04-15 09:46 43.37152 75.11778 16912 ft 300 kts 239°
2026-04-15 09:46 43.36259 75.09209 16505 ft 298 kts 246°
2026-04-15 09:46 43.35452 75.06591 16110 ft 297 kts 246°
2026-04-15 09:47 43.34640 75.03981 15637 ft 297 kts 246°
2026-04-15 09:47 43.33828 75.01382 15206 ft 297 kts 245°
2026-04-15 09:47 43.33013 74.98770 14780 ft 298 kts 246°
2026-04-15 09:47 43.32198 74.96156 14382 ft 297 kts 245°
2026-04-15 09:48 43.31391 74.93573 14134 ft 292 kts 245°
2026-04-15 09:48 43.30587 74.91003 13701 ft 293 kts 246°
2026-04-15 09:48 43.29784 74.88435 13392 ft 289 kts 245°
2026-04-15 09:48 43.28985 74.85933 13064 ft 285 kts 242°
2026-04-15 09:49 43.27862 74.83696 12514 ft 288 kts 227°
2026-04-15 09:49 43.26275 74.81920 11725 ft 302 kts 214°
2026-04-15 09:49 43.24482 74.80328 10922 ft 313 kts 215°
2026-04-15 09:49 43.22630 74.78668 10111 ft 323 kts 213°
2026-04-15 09:50 43.20782 74.77007 9235 ft 319 kts 215°
2026-04-15 09:50 43.18946 74.75355 8377 ft 312 kts 218°
2026-04-15 09:50 43.17153 74.73734 7576 ft 306 kts 218°
2026-04-15 09:50 43.15389 74.72132 6790 ft 301 kts 218°
2026-04-15 09:51 43.13658 74.70560 6015 ft 297 kts 218°
2026-04-15 09:51 43.11953 74.69014 5245 ft 291 kts 218°
2026-04-15 09:51 43.10293 74.67465 4494 ft 286 kts 219°
2026-04-15 09:51 43.08785 74.65782 3780 ft 272 kts 238°
2026-04-15 09:52 43.08105 74.63559 3520 ft 241 kts 262°
2026-04-15 09:52 43.07844 74.61407 3439 ft 217 kts 265°
2026-04-15 09:52 43.07615 74.59424 3417 ft 204 kts 265°
2026-04-15 09:52 43.07388 74.57613 3192 ft 182 kts 265°
2026-04-15 09:53 43.07183 74.56013 2966 ft 162 kts 264°
2026-04-15 09:53 43.06996 74.54538 2754 ft 153 kts 260°
2026-04-15 09:53 43.06816 74.53120 2528 ft 154 kts 265°
2026-04-15 09:53 43.06631 74.51668 2316 ft 159 kts 263°
2026-04-15 09:54 43.06445 74.50259 2101 ft 149 kts 262°
2026-04-15 09:54 43.06272 74.49004 2084 ft 120 kts 263°
2026-04-15 09:54 43.06122 74.47796 2405 ft 142 kts 264°
2026-04-15 09:54 43.05952 74.46376 3019 ft 162 kts 265°
2026-04-15 09:55 43.05818 74.44806 3364 ft 176 kts 276°
2026-04-15 09:55 43.06325 74.43248 3493 ft 192 kts 312°
2026-04-15 09:55 43.07562 74.42396 3609 ft 216 kts 347°
2026-04-15 09:55 43.09116 74.42728 3935 ft 240 kts 22°
2026-04-15 09:56 43.10431 74.44237 4347 ft 258 kts 50°
2026-04-15 09:56 43.11131 74.46512 4428 ft 263 kts 74°
2026-04-15 09:56 43.11624 74.51476 4437 ft 265 kts 83°
2026-04-15 09:57 43.11759 74.53997 4432 ft 267 kts 83°
2026-04-15 09:57 43.11881 74.56524 4436 ft 265 kts 83°
2026-04-15 09:57 43.11939 74.59026 4434 ft 262 kts 88°
2026-04-15 09:57 43.12027 74.61511 4430 ft 262 kts 82°
2026-04-15 09:58 43.11970 74.64027 4436 ft 267 kts 96°
2026-04-15 09:58 43.11523 74.66464 4421 ft 264 kts 120°
2026-04-15 09:58 43.10280 74.68110 4409 ft 241 kts 160°
2026-04-15 09:58 43.08759 74.68324 4288 ft 206 kts 204°
2026-04-15 09:59 43.07758 74.67230 4150 ft 173 kts 254°
2026-04-15 09:59 43.07790 74.65775 4026 ft 149 kts 297°
2026-04-15 09:59 43.08191 74.64499 3725 ft 149 kts 276°
2026-04-15 09:59 43.07971 74.63124 3483 ft 147 kts 260°
2026-04-15 10:00 43.07854 74.61754 3429 ft 147 kts 267°
2026-04-15 10:00 43.07716 74.60380 3428 ft 150 kts 266°
2026-04-15 10:00 43.07552 74.58960 3326 ft 150 kts 265°
2026-04-15 10:00 43.07380 74.57566 3169 ft 147 kts 265°
2026-04-15 10:01 43.07207 74.56189 2979 ft 146 kts 265°
2026-04-15 10:01 43.07032 74.54809 2777 ft 148 kts 261°
2026-04-15 10:01 43.06855 74.53427 2573 ft 148 kts 264°
2026-04-15 10:01 43.06680 74.52056 2362 ft 145 kts 265°
2026-04-15 10:02 43.06505 74.50699 2152 ft 144 kts 261°
2026-04-15 10:02 43.06339 74.49398 2069 ft 127 kts 259°
2026-04-15 10:02 43.06228 74.48456 2070 ft 74 kts 261°
2026-04-15 10:02 43.06164 74.47981 2071 ft 36 kts 259°
2026-04-15 10:03 43.06118 74.47667 2070 ft 32 kts 258°
2026-04-15 10:03 43.06077 74.47380 2069 ft 29 kts 259°
2026-04-15 10:03 43.06047 74.47144 2068 ft 11 kts 259°
2026-04-15 10:03 43.05999 74.47100 2069 ft 7 kts 178°
2026-04-15 10:04 43.05959 74.47110 2070 ft 5 kts 170°
2026-04-15 10:04 43.05932 74.47117 2070 ft 4 kts 168°
2026-04-15 10:04 43.05897 74.47127 2069 ft 9 kts 167°
2026-04-15 10:04 43.05824 74.47147 2069 ft 10 kts 169°
2026-04-15 10:05 43.05759 74.47162 2069 ft 9 kts 171°
2026-04-15 10:05 43.05703 74.47175 2069 ft 7 kts 171°
2026-04-15 10:05 43.05658 74.47184 2069 ft 6 kts 171°
2026-04-15 10:05 43.05625 74.47180 2069 ft 4 kts 201°
2026-04-15 10:06 43.05603 74.47166 2069 ft 3 kts 203°
2026-04-15 10:06 43.05588 74.47159 2069 ft 2 kts 193°
2026-04-15 10:06 43.05551 74.47161 2069 ft 5 kts 171°
2026-04-15 10:06 43.05538 74.47165 2069 ft 0 kts 169°